Cut Bank, MT

9:14 PM MST on November 22, 2017 (GMT -0700)
Cut Bank Municipal

Weather History for KCTB - January, 2013

Change the Weather History Date:

Friday, January 11, 2013

  Actual Average Record
Temperature  
Mean Temperature 2 °F 22 °F  
Max Temperature 10 °F 33 °F 58 °F (1953)
Min Temperature -7 °F 11 °F -43 °F (1909)
Degree Days  
Heating Degree Days 63 43  
Month to date heating degree days 425 476  
Since 1 July heating degree days 3950 4066  
Cooling Degree Days 0 0  
Month to date cooling degree days 0 0  
Year to date cooling degree days 0 0  
Moisture  
Dew Point 1 °F    
Average Humidity 82    
Maximum Humidity 91    
Minimum Humidity 73    
Precipitation  
Precipitation T in 0.01 in 0.31 in (1972)
Month to date precipitation T 0.08  
Year to date precipitation T 0.08  
Snow  
Snow 0.00 in - - ()
Snow Depth -    
Sea Level Pressure  
Sea Level Pressure 30.10 in    
Wind  
Wind Speed 15 mph (NNW)    
Max Wind Speed 12 mph    
Max Gust Speed 13 mph    
Visibility 4 miles    
Events Snow    
T = Trace of Precipitation, MM = Missing Value Source: NWS Daily Summary

Daily Weather History Graph

Daily Weather History Graph

Search for Another Location

Airport or City:

Trip Planner

Search our weather history database for the weather conditions in past years. The results will help you decide how hot, cold, wet, or windy it might be!

Date:

Astronomy

Jan. 11, 2013 Rise Set
Actual Time 8:18 AM MST 4:56 PM MST
Civil Twilight 7:43 AM MST 5:32 PM MST
Nautical Twilight 7:03 AM MST 6:12 PM MST
Astronomical Twilight 6:25 AM MST 6:49 PM MST
Moon 7:51 AM MST (1/11) 5:24 PM MST (1/11)
Length of Visible Light 9h 49m
Length of Day
8h 37m
Waning Crescent, 0% of the Moon is Illuminated
Jan 11
Waning Crescent
Jan 11
New
Jan 18
First Quarter
Jan 26
Full
Feb 3
Last Quarter

Hourly Weather History & Observations

Time (MST) Temp. Windchill Dew Point Humidity Pressure Visibility Wind Dir Wind Speed Gust Speed Precip Events Conditions
12:16 AM 6.8 °F -16.6 °F 3.2 °F 85% 29.88 in 0.8 mi North 29.9 mph 36.8 mph 0.00 in Snow Light Snow
12:30 AM 6.8 °F -15.9 °F 3.2 °F 85% 29.89 in 1.2 mi North 27.6 mph - 0.00 in Snow Light Snow
12:56 AM 7.0 °F -15.3 °F 3.0 °F 84% 30.08 in 1.0 mi North 26.5 mph - 0.00 in Snow Light Snow
1:37 AM 6.8 °F -15.5 °F 3.2 °F 85% 29.90 in 0.8 mi North 26.5 mph 34.5 mph 0.00 in Snow Light Snow
1:46 AM 6.8 °F -15.5 °F 3.2 °F 85% 29.90 in 1.0 mi North 26.5 mph 32.2 mph 0.00 in Snow Light Snow
1:56 AM 6.1 °F -14.8 °F 3.0 °F 87% 30.10 in 1.0 mi North 21.9 mph - 0.00 in Snow Light Snow
2:12 AM 6.8 °F -14.3 °F 3.2 °F 85% 29.91 in 0.8 mi North 23.0 mph - 0.00 in Snow Light Snow
2:19 AM 6.8 °F -15.1 °F 1.4 °F 79% 29.91 in 1.0 mi North 25.3 mph 32.2 mph 0.00 in Snow Light Snow
2:28 AM 6.8 °F -15.5 °F 1.4 °F 79% 29.92 in 0.8 mi North 26.5 mph 33.4 mph 0.00 in Snow Light Snow
2:39 AM 6.8 °F -15.9 °F 1.4 °F 79% 29.92 in 1.0 mi North 27.6 mph 33.4 mph 0.00 in Snow Light Snow
2:56 AM 6.1 °F -16.5 °F 1.9 °F 83% 30.12 in 1.0 mi NNW 26.5 mph 32.2 mph 0.00 in Snow Light Snow
3:56 AM 6.1 °F -16.8 °F 1.9 °F 83% 30.14 in 1.5 mi NNW 27.6 mph - 0.00 in Snow Light Snow
4:56 AM 5.0 °F -17.1 °F 1.9 °F 87% 29.94 in 1.5 mi NNW 24.2 mph - 0.00 in Snow Light Snow
5:43 AM 5.0 °F -16.7 °F 1.4 °F 85% 29.94 in 2.5 mi NNW 23.0 mph - 0.00 in Snow Light Snow
5:56 AM 5.0 °F -17.1 °F 1.0 °F 84% 30.15 in 2.5 mi NNW 24.2 mph - 0.00 in Snow Light Snow
6:12 AM 5.0 °F -16.7 °F 1.4 °F 85% 29.95 in 3.0 mi North 23.0 mph - 0.00 in Snow Light Snow
6:49 AM 5.0 °F -15.7 °F 1.4 °F 85% 29.97 in 2.5 mi North 20.7 mph - 0.00 in Snow Light Snow
6:56 AM 5.0 °F -16.2 °F 1.0 °F 84% 30.19 in 2.5 mi North 21.9 mph - 0.00 in Snow Light Snow
7:14 AM 5.0 °F -16.2 °F 1.4 °F 85% 29.98 in 3.0 mi North 21.9 mph - 0.00 in Snow Light Snow
7:36 AM 5.0 °F -16.2 °F 1.4 °F 85% 30.00 in 2.5 mi North 21.9 mph - 0.00 in Snow Light Snow
7:52 AM 5.0 °F -15.7 °F 1.4 °F 85% 30.01 in 3.0 mi North 20.7 mph - 0.00 in Snow Light Snow
7:56 AM 3.9 °F -17.1 °F -0.0 °F 84% 30.23 in 3.0 mi North 20.7 mph - 0.00 in Snow Light Snow
8:07 AM 3.2 °F -19.0 °F -0.4 °F 85% 30.02 in 2.5 mi North 23.0 mph - 0.00 in Snow Light Snow
8:19 AM 3.2 °F -19.0 °F -0.4 °F 85% 30.02 in 3.0 mi North 23.0 mph - 0.00 in Snow Light Snow
8:28 AM 3.2 °F -18.6 °F -0.4 °F 85% 30.02 in 2.0 mi North 21.9 mph - 0.00 in Snow Light Snow
8:38 AM 3.2 °F -18.6 °F -0.4 °F 85% 30.02 in 1.5 mi North 21.9 mph - 0.00 in Snow Light Snow
8:56 AM 3.9 °F -18.1 °F -0.0 °F 84% 30.24 in 1.2 mi North 23.0 mph - 0.00 in Snow Light Snow
9:53 AM 5.0 °F -15.2 °F 1.4 °F 85% 30.04 in 0.8 mi North 19.6 mph - 0.00 in Snow Light Snow
9:56 AM 5.0 °F -15.7 °F 1.0 °F 84% 30.26 in 1.0 mi North 20.7 mph - 0.00 in Snow Light Snow
10:27 AM 5.0 °F -15.7 °F 1.4 °F 85% 30.05 in 2.0 mi North 20.7 mph - 0.00 in Snow Light Snow
10:37 AM 6.8 °F -12.9 °F 1.4 °F 79% 30.05 in 1.5 mi North 19.6 mph - 0.00 in Snow Light Snow
10:56 AM 6.1 °F -13.8 °F 1.0 °F 80% 30.27 in 1.2 mi North 19.6 mph - 0.00 in Snow Light Snow
11:07 AM 6.8 °F -12.4 °F 1.4 °F 79% 30.05 in 1.8 mi NNW 18.4 mph - N/A Snow Light Snow
11:15 AM 6.8 °F -11.8 °F 1.4 °F 79% 30.05 in 2.5 mi NNW 17.3 mph - 0.00 in Snow Light Snow
11:25 AM 6.8 °F -12.4 °F 1.4 °F 79% 30.05 in 4.0 mi NNW 18.4 mph - 0.00 in Snow Light Snow
11:56 AM 7.0 °F -9.1 °F 1.0 °F 77% 30.28 in 5.0 mi NNW 12.7 mph - 0.00 in   Haze
12:56 PM 8.1 °F -9.6 °F 3.0 °F 80% 30.27 in 10.0 mi NNW 16.1 mph - N/A   Overcast
1:56 PM 10.0 °F -4.5 °F 3.0 °F 73% 30.27 in 10.0 mi NNW 11.5 mph - N/A   Mostly Cloudy
2:56 PM 9.0 °F -5.1 °F 1.9 °F 73% 30.30 in 10.0 mi NNW 10.4 mph - N/A   Mostly Cloudy
3:56 PM 10.0 °F -2.9 °F 3.0 °F 73% 30.30 in 10.0 mi NNW 9.2 mph - N/A   Unknown
4:56 PM 3.9 °F -8.2 °F -0.9 °F 80% 30.33 in 10.0 mi NNW 6.9 mph - N/A   Clear
5:56 PM 3.0 °F - -0.9 °F 84% 30.32 in 10.0 mi Calm Calm - N/A   Overcast
6:56 PM 1.0 °F - -2.9 °F 83% 30.32 in 10.0 mi Calm Calm - N/A   Clear
7:56 PM -0.0 °F -7.9 °F -2.9 °F 88% 30.30 in 10.0 mi South 3.5 mph - N/A   Clear
8:56 PM -0.9 °F -8.9 °F -5.1 °F 83% 30.29 in 10.0 mi SW 3.5 mph - N/A   Clear
9:56 PM -2.9 °F -11.2 °F -6.0 °F 87% 30.27 in 10.0 mi SSW 3.5 mph - N/A   Clear
10:56 PM -5.8 °F -21.2 °F -7.6 °F 92% 30.00 in 10.0 mi SE 8.1 mph - N/A   Clear
11:56 PM -6.0 °F -23.6 °F -9.0 °F 87% 30.23 in 10.0 mi SE 10.4 mph - N/A   Clear